• Join FlightAware (Why Join?)
  • Login
  • US Flag 
05:32PM EDT


 

Airport Tracker/Info


-or-


 

Live Flight TrackerFlight Track Log ✈ EJA929 ✈ 12-Jul-2013 ✈ KHOU - KMIA

Flight Track Log - Related Links

Times and Time Zones

All times are in EDT time to prevent confusion due to time zone crossing. See the EJA929 flight status page for this flight to view local times or setup timezone preferences in your user account.

Time Position Orientation Groundspeed Altitude Reporting Facility
EDT Latitude Longitude Course Direction KTS MPH feet Rate Location/Type
12:33PM 29.6333 -95.2653 143° Southeast 173 199 700  Level Houston Center
12:34PM 29.5997 -95.2361 143° Southeast 203 234 3,300 3,600 Climbing Houston Center
12:35PM 29.5800 -95.1775 111° Southeast 215 247 7,600 4,020 Climbing Houston Center
12:36PM 29.5958 -95.0958 77° East 226 260 11,700 2,940 Climbing Houston Center
12:37PM 29.6119 -95.0014 79° East 304 350 13,700 2,220 Climbing Houston Center
12:38PM 29.6311 -94.8861 79° East 362 417 16,300 2,100 Climbing Houston Center
12:39PM 29.6506 -94.7667 79° East 379 436 18,100 1,440 Climbing Houston Center
12:40PM 29.6711 -94.6442 79° East 390 449 19,300 1,080 Climbing Houston Center
12:41PM 29.6922 -94.5192 79° East 398 458 20,400 1,140 Climbing Houston Center
12:42PM 29.7164 -94.3653 80° East 409 471 21,700 1,020 Climbing Houston Center
12:43PM 29.7086 -94.2333 94° East 422 486 22,600 1,200 Climbing Houston Center
12:44PM 29.6928 -94.0936 97° East 430 495 24,200 1,680 Climbing Houston Center
12:45PM 29.6842 -93.9647 94° East 411 473 26,100 1,500 Climbing Houston Center
12:46PM 29.6847 -93.8347 90° East 414 476 27,400 1,140 Climbing Houston Center
12:47PM 29.6836 -93.7000 91° East 424 488 28,500 1,020 Climbing Houston Center
12:48PM 29.6806 -93.5344 91° East 436 502 29,600 960 Climbing Houston Center
12:49PM 29.6786 -93.3911 91° East 444 511 30,600 900 Climbing Houston Center
12:50PM 29.6767 -93.2431 91° East 457 526 31,500 900 Climbing Houston Center
12:51PM 29.6742 -93.0922 91° East 470 541 32,500 840 Climbing Houston Center
12:52PM 29.6711 -92.9394 91° East 480 552 33,300 1,440 Climbing Houston Center
12:54PM 29.6694 -92.7558 91° East 479 551 35,600 1,980 Climbing Houston Center
12:55PM 29.6644 -92.6075 92° East 470 541 37,400 1,620 Climbing Houston Center
12:56PM 29.6347 -92.4636 103° East 467 537 39,000 720 Climbing Houston Center
12:57PM 29.5961 -92.3147 107° East 481 554 39,000  Level Houston Center
12:58PM 29.5550 -92.1572 107° East 510 587 39,000 180 Level Houston Center
12:59PM 29.5036 -91.9661 107° East 524 603 39,400 480 Climbing Houston Center
01:00PM 29.4611 -91.8097 107° East 517 595 40,100 720 Climbing Houston Center
01:01PM 29.4217 -91.6597 107° East 515 593 40,900 360 Climbing Houston Center
01:02PM 29.3786 -91.5044 108° East 513 590 40,900  Level Houston Center
01:03PM 29.3269 -91.3153 107° East 520 598 41,000  Climbing Houston Center
01:04PM 29.2842 -91.1567 107° East 522 601 41,000  Level Houston Center
01:05PM 29.2417 -91.0000 107° East 519 597 41,000  Level Houston Center
01:06PM 29.1972 -90.8442 108° East 517 595 41,000  Level Houston Center
01:07PM 29.1542 -90.6869 107° East 520 598 41,000  Level Houston Center
01:08PM 29.1097 -90.5289 108° East 524 603 41,000  Level Houston Center
01:09PM 29.0567 -90.3406 108° East 521 600 41,000  Level Houston Center
01:10PM 29.0122 -90.1836 108° East 523 602 41,000  Level Houston Center
01:11PM 28.9728 -90.0233 106° East 525 604 41,000  Level Houston Center
01:12PM 28.9378 -89.8633 104° East 524 603 41,000  Level Houston Center
01:13PM 28.9017 -89.7039 104° East 523 602 41,000  Level Houston Center
01:14PM 28.8575 -89.5122 105° East 526 605 41,000  Level Houston Center
01:15PM 28.8206 -89.3542 105° East 520 598 41,000  Level Houston Center
01:16PM 28.7842 -89.1939 104° East 523 602 41,000  Level Houston Center
01:17PM 28.7478 -89.0378 105° East 516 594 41,000  Level Houston Center
01:18PM 28.7106 -88.8794 105° East 519 597 41,000  Level Houston Center
01:19PM 28.6711 -88.7219 106° East 520 598 41,000  Level Houston Center
01:20PM 28.6108 -88.5381 110° East 520 598 41,000  Level Houston Center
01:21PM 28.5597 -88.3853 111° Southeast 519 597 41,000  Level Houston Center
01:22PM 28.5089 -88.2314 111° Southeast 521 600 41,000  Level Houston Center
01:24PM 28.4606 -88.0875 111° Southeast 524 603 41,000  Level Houston Center
01:25PM 28.3983 -87.9025 111° Southeast 523 602 41,000  Level Houston Center
01:26PM 28.3461 -87.7492 111° Southeast 523 602 41,000  Level Houston Center
01:27PM 28.2944 -87.5950 111° Southeast 526 605 41,000  Level Houston Center
01:28PM 28.2417 -87.4417 111° Southeast 525 604 41,000  Level Houston Center
01:29PM 28.1894 -87.2881 111° Southeast 525 604 41,000  Level Houston Center
01:30PM 28.1272 -87.1047 111° Southeast 522 601 41,000  Level Houston Center
01:31PM 28.0850 -86.9856 112° Southeast 520 598 41,100 540 Climbing Jacksonville Center
01:32PM 28.0333 -86.8353 111° Southeast 520 598 42,000 720 Climbing Jacksonville Center
01:33PM 27.9814 -86.6853 111° Southeast 511 588 42,600 480 Climbing Jacksonville Center
01:34PM 27.9292 -86.5400 112° Southeast 511 588 43,000 180 Climbing Jacksonville Center
01:35PM 27.8792 -86.3928 111° Southeast 511 588 43,000 -60 Level Jacksonville Center
01:36PM 27.8247 -86.2431 112° Southeast 500 575 42,900  Descending Jacksonville Center
01:37PM 27.7739 -86.1053 113° Southeast 500 575 43,000  Climbing Jacksonville Center
01:38PM 27.7194 -85.9489 111° Southeast 507 583 43,000  Level Jacksonville Center
01:40PM 27.5794 -85.5747 113° Southeast 531 611 43,000  Level Miami Center
01:41PM 27.5342 -85.4286 109° East 531 611 43,000  Level Miami Center
01:42PM 27.4783 -85.2819 113° Southeast 526 605 43,000  Level Miami Center
01:43PM 27.4306 -85.1358 110° East 526 605 43,000  Level Miami Center
01:44PM 27.3700 -84.9914 115° Southeast 519 597 43,000  Level Miami Center
01:45PM 27.3197 -84.8456 111° Southeast 505 581 43,000  Level Miami Center
01:46PM 27.2692 -84.7022 112° Southeast 499 574 43,000  Level Miami Center
01:47PM 27.2247 -84.5614 110° East 494 568 43,000  Level Miami Center
01:48PM 27.1633 -84.4175 116° Southeast 488 562 43,000  Level Miami Center
01:49PM 27.1144 -84.2769 111° Southeast 488 562 43,000  Level Miami Center
01:50PM 27.0572 -84.1311 114° Southeast 488 562 43,000  Level Miami Center
01:51PM 27.0036 -83.9928 113° Southeast 488 562 43,000  Level Miami Center
01:52PM 26.9481 -83.8497 114° Southeast 488 562 43,000  Level Miami Center
01:53PM 26.8964 -83.7072 112° Southeast 488 562 43,000  Level Miami Center
01:54PM 26.8444 -83.5669 113° Southeast 488 562 43,000  Level Miami Center
01:55PM 26.7925 -83.4267 113° Southeast 488 562 43,000  Level Miami Center
01:56PM 26.7364 -83.2842 114° Southeast 488 562 43,000 -600 Level Miami Center
01:57PM 26.6839 -83.1442 113° Southeast 488 562 41,800 -1,740 Descending Miami Center
01:58PM 26.6314 -83.0114 114° Southeast 482 555 39,600 -2,340 Descending Miami Center
01:59PM 26.5786 -82.8717 113° Southeast 482 555 37,200 -2,460 Descending Miami Center
02:00PM 26.5258 -82.7369 114° Southeast 477 549 34,700 -2,520 Descending Miami Center
02:01PM 26.4664 -82.6017 116° Southeast 477 549 32,200 -2,520 Descending Miami Center
02:02PM 26.3856 -82.4819 127° Southeast 477 549 29,700 -2,760 Descending Miami Center
02:03PM 26.2903 -82.3547 130° Southeast 482 555 26,700 -2,760 Descending Miami Center
02:04PM 26.1981 -82.2486 134° Southeast 476 548 24,200 -1,440 Descending Miami Center
02:05PM 26.1225 -82.1503 131° Southeast 470 541 23,900 -480 Descending Miami Center
02:06PM 26.0900 -82.0103 104° East 455 524 23,300 -1,320 Descending Miami Center
02:07PM 26.0594 -81.8678 103° East 456 525 21,300 -1,680 Descending Miami Center
02:08PM 26.0347 -81.7281 101° East 461 531 20,000 -1,200 Descending Miami Center
02:09PM 26.0081 -81.5908 102° East 461 531 19,000 -1,080 Descending Miami Center
02:10PM 25.9817 -81.4372 101° East 455 524 17,900 -960 Descending Miami Center
02:11PM 25.9603 -81.3186 101° East 449 517 17,100 -1,020 Descending Miami Center
02:12PM 25.9369 -81.1886 101° East 444 511 15,900 -600 Descending Miami Center
02:13PM 25.9158 -81.0536 100° East 438 504 15,900  Level Miami Center
02:14PM 25.8958 -80.9492 102° East 349 402 16,000 -1,020 Climbing Miami Center
02:15PM 25.8675 -80.8419 106° East 351 404 14,100 -2,340 Descending Miami Center
02:16PM 25.8558 -80.7261 96° East 334 384 11,100 -2,100 Descending Miami Center
02:17PM 25.8583 -80.6317 88° East 296 341 9,700 -1,620 Descending Miami Center
02:18PM 25.8667 -80.5489 84° East 293 337 8,000 -900 Descending Miami Center
02:19PM 25.8731 -80.4589 85° East 279 321 8,000  Level Miami Center
02:20PM 25.8817 -80.3669 84° East 299 344 8,000 -720 Level Miami Center
02:21PM 25.8900 -80.2794 84° East 284 327 6,600 -1,680 Descending Miami Center
02:22PM 25.8981 -80.1989 84° East 238 274 4,700 -1,920 Descending Miami Center
02:23PM 25.8633 -80.1656 139° Southeast 172 198 2,800 -1,620 Descending Miami Center
02:24PM 25.8169 -80.1850 201° Southwest 180 207 1,500 -960 Descending Miami Center
02:25PM 25.8056 -80.2239 252° West 137 158 1,000 -660 Descending Miami Center
02:26PM 25.8003 -80.2700 263° West 130 150 200 -720 Descending Miami Center
02:28PM 25.7833 -80.2833 254° West  Level FlightAware Approximate
02:35PM 25.7954 -80.2901 254° West  Level Estimated